Terug naar catalogus

EPSILON R/B

ActiefHEO
NORAD 41897·ROCKET BODY·🇯🇵 Japan

Gelanceerd Dec 20, 2016 vanaf Uchinoura Space Center

Loading…

Volgende Passages (komende 24 uur)

TLE

VersSource: Space-Track

Epoch: Sep 14, 2026, 05:54 UTC

1 41897U 16080B   26257.24617350  .00121973 -21744-6  75394-3 0  9993
2 41897  31.2170 351.0578 4555591 326.8217  11.4633  6.57711014133712

Volg EPSILON R/B in realtime met AllMySat

Download on the App Store